• Processing (Info)

  • MPEC 1997-G06 : 1997 CU26

    The following Minor Planet Electronic Circular may be linked-to from your own Web pages, but must not otherwise be redistributed electronically.

    A form allowing access to any MPEC is at the bottom of this page.


    Read MPEC 1997-G05 Read MPEC 1997-H01


    M.P.E.C. 1997-G06                                Issued 1997 Apr. 12, 15:42 UT
    
         The Minor Planet Electronic Circulars contain information on unusual
             minor planets and routine data on comets.  They are published
       on behalf of Commission 20 of the International Astronomical Union by the
              Minor Planet Center, Smithsonian Astrophysical Observatory,
                              Cambridge, MA 02138, U.S.A.
    
                 BMARSDEN@CFA.HARVARD.EDU or GWILLIAMS@CFA.HARVARD.EDU
                     URL http://cfa-www.harvard.edu/cfa/ps/mpc.html
    
                                       1997 CU26
    
                               Revision to MPEC 1997-D11
    
    Observations:
         J97C26U  C1997 03 15.15348 08 25 35.41 +15 42 34.0          16.9 R      691
         J97C26U  C1997 03 16.17636 08 25 27.72 +15 42 42.5                      711
         J97C26U  C1997 03 16.27478 08 25 26.96 +15 42 43.3                      711
         J97C26U  C1997 03 16.85840 08 25 22.77 +15 42 47.1                      587
         J97C26U  C1997 03 16.93524 08 25 22.19 +15 42 47.3                      587
         J97C26U  C1997 03 17.16228 08 25 20.59 +15 42 49.8                      711
         J97C26U  C1997 03 17.16800 08 25 20.55 +15 42 49.8                      711
         J97C26U  C1997 03 27.30947 08 24 22.48 +15 43 21.0          17.5 R      658
         J97C26U  C1997 03 27.32187 08 24 22.43 +15 43 21.3          17.5 R      658
         J97C26U  C1997 03 27.33598 08 24 22.32 +15 43 20.5          17.5 R      658
         J97C26U  C1997 04 01.86667 08 24 02.85 +15 43 03.4          17.8 V      046
         J97C26U  C1997 04 01.87086 08 24 02.84 +15 43 03.5                      046
         J97C26U  C1997 04 01.87513 08 24 02.82 +15 43 03.4                      046
         J97C26U  C1997 04 07.90282 08 23 51.66 +15 42 13.8                      587
         J97C26U  C1997 04 08.83125 08 23 50.91 +15 42 03.0                      587
    
    Observer details:
    046 Klet.  Observers J. Ticha, M. Tichy, Z. Moravec.  Measurer M. Tichy.
        0.57-m f/5.2 reflector + CCD.
    587 Sormano.  Observers P. Sicoli, A. Testa, P. Chiavenna, M. Cavagna.
        0.5-m reflector + CCD.
    658 Dominion Astrophysical Observatory.  Observer D. D. Balam.  1.82-m
        reflector + CCD.
    691 Steward Observatory, Kitt Peak.  Observer J. V. Scotti.
        0.9-m Spacewatch telescope.
    711 McDonald Observatory.  Observer P. J. Shelus.  0.76-m reflector + CCD.
    
    Orbital elements:
    1997 CU26
    Epoch 1997 June 1.0 TT = JDT 2450600.5                  Marsden
    M 320.35761              (2000.0)            P               Q
    n   0.01559443     Peri.  246.19100     -0.92842908     +0.14455114
    a  15.8668107      Node   300.46726     +0.07310976     -0.83209613
    e   0.1901910      Incl.   23.39458     -0.36424497     -0.53546335
    P  63.20           H    6.0           G   0.15           U   6
    From 171 observations 1997 Feb. 15-Apr. 8, mean residual 0".40.
    
    Ephemeris:
    1997 CU26                a,e,i = 15.87, 0.19, 23                 q = 12.849
    Date    TT    R. A. (2000) Decl.     Delta      r     Elong.  Phase     V
    1997 04 12    08 23.84   +15 41.4   13.623   13.871   102.3     4.0    17.8
    1997 04 22    08 24.12   +15 38.1   13.782   13.864    92.6     4.2    17.8
    1997 05 02    08 24.88   +15 33.3   13.942   13.857    83.1     4.1    17.8
    1997 05 12    08 26.10   +15 26.8   14.098   13.850    73.8     4.0    17.8
    1997 05 22    08 27.73   +15 18.8   14.247   13.843    64.6     3.8    17.8
    1997 06 01    08 29.74   +15 09.1   14.385   13.836    55.5     3.5    17.8
    1997 06 11    08 32.09   +14 58.0   14.507   13.829    46.6     3.1    17.8
    1997 06 21    08 34.72   +14 45.4   14.612   13.822    37.7     2.6    17.8
    
    Brian G. Marsden             (C) Copyright 1997 MPC           M.P.E.C. 1997-G06
    

    Read MPEC 1997-G05 Read MPEC 1997-H01


    MPEC number:

    Enter an MPEC number in one of the following forms:

    • 1997-B01 (the full form)
    • J97B01 (the packed version of the full form)
    • B01 (the abbreviated form)